Time,TemperatureF,DewpointF,PressureIn,WindDirection,WindDirectionDegrees,WindSpeedMPH,WindSpeedGustMPH,Humidity,HourlyPrecipIn,Conditions,Clouds,dailyrainin,SoftwareType,DateUTC
2013-10-15 07:07:00,54.9,35.6,30.09,NNW,342,0.0,0.0,47,0.00,,,0.00,WUHU216WMR968SP,2013-10-15 11:07:00,
2013-10-15 07:12:00,54.9,35.6,30.06,NNW,342,0.0,0.0,47,0.00,,,0.00,WUHU216WMR968SP,2013-10-15 11:12:00,
2013-10-15 07:17:00,54.9,35.6,30.06,NNW,341,0.0,0.0,47,0.00,,,0.00,WUHU216WMR968SP,2013-10-15 11:17:00,
2013-10-15 07:22:00,55.0,35.6,30.06,NNE,21,0.0,0.0,48,0.00,,,0.00,WUHU216WMR968SP,2013-10-15 11:22:00,
2013-10-15 07:27:00,55.2,35.6,30.06,NNE,21,0.0,0.0,48,0.00,,,0.00,WUHU216WMR968SP,2013-10-15 11:27:00,
2013-10-15 07:32:00,55.6,35.6,30.06,NNE,21,0.0,0.0,48,0.00,,,0.00,WUHU216WMR968SP,2013-10-15 11:32:00,
2013-10-15 07:37:00,55.9,35.6,30.06,NNE,21,0.0,0.0,47,0.00,,,0.00,WUHU216WMR968SP,2013-10-15 11:37:00,
2013-10-15 07:42:00,56.1,35.6,30.09,NNE,21,0.0,0.0,47,0.00,,,0.00,WUHU216WMR968SP,2013-10-15 11:42:00,
2013-10-15 07:47:00,56.7,37.4,30.09,ESE,110,0.0,3.6,48,0.00,,,0.00,WUHU216WMR968SP,2013-10-15 11:47:00,
2013-10-15 07:52:00,57.4,37.4,30.09,ESE,119,3.1,4.0,46,0.00,,,0.00,WUHU216WMR968SP,2013-10-15 11:52:00,
2013-10-15 07:57:00,57.9,35.6,30.09,East,101,3.1,4.0,45,0.00,,,0.00,WUHU216WMR968SP,2013-10-15 11:57:00,
2013-10-15 08:02:00,58.1,37.4,30.09,SE,128,2.7,5.4,44,0.00,,,0.00,WUHU216WMR968SP,2013-10-15 12:02:00,
2013-10-15 08:07:00,58.3,37.4,30.09,SE,126,2.7,5.4,44,0.00,,,0.00,WUHU216WMR968SP,2013-10-15 12:07:00,
2013-10-15 08:12:00,58.5,37.4,30.09,East,95,2.7,4.9,43,0.00,,,0.00,WUHU216WMR968SP,2013-10-15 12:12:00,
2013-10-15 08:17:00,58.6,35.6,30.09,South,173,3.6,5.4,42,0.00,,,0.00,WUHU216WMR968SP,2013-10-15 12:17:00,
2013-10-15 08:22:00,58.6,35.6,30.09,East,92,4.0,5.8,42,0.00,,,0.00,WUHU216WMR968SP,2013-10-15 12:22:00,
2013-10-15 08:27:00,58.8,35.6,30.09,SE,144,5.4,6.3,42,0.00,,,0.00,WUHU216WMR968SP,2013-10-15 12:27:00,
2013-10-15 08:32:00,59.0,35.6,30.09,SE,125,4.5,6.7,41,0.00,,,0.00,WUHU216WMR968SP,2013-10-15 12:32:00,
2013-10-15 08:37:00,59.2,35.6,30.09,ESE,114,4.5,6.7,40,0.00,,,0.00,WUHU216WMR968SP,2013-10-15 12:37:00,
2013-10-15 08:42:00,59.4,35.6,30.06,SSE,147,4.5,6.3,40,0.00,,,0.00,WUHU216WMR968SP,2013-10-15 12:42:00,
2013-10-15 08:47:00,59.4,33.8,30.06,SE,139,4.5,6.3,39,0.00,,,0.00,WUHU216WMR968SP,2013-10-15 12:47:00,
2013-10-15 08:52:00,59.2,33.8,30.06,ESE,114,5.8,7.6,39,0.00,,,0.00,WUHU216WMR968SP,2013-10-15 12:52:00,
2013-10-15 08:57:00,59.4,33.8,30.09,SE,124,4.9,7.6,39,0.00,,,0.00,WUHU216WMR968SP,2013-10-15 12:57:00,
2013-10-15 09:02:00,59.5,33.8,30.09,SE,144,3.6,8.1,39,0.00,,,0.00,WUHU216WMR968SP,2013-10-15 13:02:00,
2013-10-15 09:07:00,59.7,33.8,30.09,SE,131,4.5,8.1,39,0.00,,,0.00,WUHU216WMR968SP,2013-10-15 13:07:00,
2013-10-15 09:12:00,59.7,33.8,30.09,ESE,118,3.6,6.3,39,0.00,,,0.00,WUHU216WMR968SP,2013-10-15 13:12:00,
2013-10-15 09:17:00,59.7,33.8,30.09,ESE,112,3.6,6.3,39,0.00,,,0.00,WUHU216WMR968SP,2013-10-15 13:17:00,
2013-10-15 09:22:00,59.9,35.6,30.09,ESE,114,3.6,5.8,39,0.00,,,0.00,WUHU216WMR968SP,2013-10-15 13:22:00,
2013-10-15 09:27:00,59.5,33.8,30.09,SE,125,5.8,6.7,39,0.00,,,0.00,WUHU216WMR968SP,2013-10-15 13:27:00,
2013-10-15 09:32:00,59.9,35.6,30.09,SE,131,5.8,7.6,39,0.00,,,0.00,WUHU216WMR968SP,2013-10-15 13:32:00,
2013-10-15 09:37:00,60.1,35.6,30.09,SE,126,5.4,7.6,38,0.00,,,0.00,WUHU216WMR968SP,2013-10-15 13:37:00,
2013-10-15 09:42:00,60.1,35.6,30.09,SE,144,4.5,6.3,39,0.00,,,0.00,WUHU216WMR968SP,2013-10-15 13:42:00,
2013-10-15 09:47:00,60.1,35.6,30.09,SE,146,5.8,7.6,39,0.00,,,0.00,WUHU216WMR968SP,2013-10-15 13:47:00,
2013-10-15 09:52:00,59.9,35.6,30.09,ESE,123,5.4,7.6,38,0.00,,,0.00,WUHU216WMR968SP,2013-10-15 13:52:00,
2013-10-15 09:57:00,60.4,35.6,30.09,SSE,152,3.1,6.3,38,0.00,,,0.00,WUHU216WMR968SP,2013-10-15 13:57:00,
2013-10-15 10:02:00,60.4,35.6,30.09,SE,129,4.9,6.7,38,0.00,,,0.00,WUHU216WMR968SP,2013-10-15 14:02:00,
2013-10-15 10:07:00,60.4,35.6,30.09,SE,141,4.9,6.7,38,0.00,,,0.00,WUHU216WMR968SP,2013-10-15 14:07:00,
2013-10-15 10:12:00,60.4,35.6,30.09,SE,127,4.5,7.6,38,0.00,,,0.00,WUHU216WMR968SP,2013-10-15 14:12:00,
2013-10-15 10:17:00,60.6,35.6,30.09,ESE,117,4.5,7.6,38,0.00,,,0.00,WUHU216WMR968SP,2013-10-15 14:17:00,
2013-10-15 10:22:00,60.6,35.6,30.09,ESE,119,4.0,6.3,38,0.00,,,0.00,WUHU216WMR968SP,2013-10-15 14:22:00,
2013-10-15 10:27:00,60.8,33.8,30.09,SE,129,3.6,6.3,37,0.00,,,0.00,WUHU216WMR968SP,2013-10-15 14:27:00,
2013-10-15 10:32:00,61.0,33.8,30.09,SE,140,2.2,5.8,37,0.00,,,0.00,WUHU216WMR968SP,2013-10-15 14:32:00,
2013-10-15 10:37:00,61.0,33.8,30.09,SSE,159,4.9,6.7,37,0.00,,,0.00,WUHU216WMR968SP,2013-10-15 14:37:00,
2013-10-15 10:42:00,60.6,33.8,30.09,SSE,147,4.9,6.7,37,0.00,,,0.00,WUHU216WMR968SP,2013-10-15 14:42:00,
2013-10-15 10:47:00,61.0,35.6,30.09,ESE,102,4.0,6.3,38,0.00,,,0.00,WUHU216WMR968SP,2013-10-15 14:47:00,
2013-10-15 10:52:00,61.0,35.6,30.09,NNE,33,3.1,6.3,38,0.00,,,0.00,WUHU216WMR968SP,2013-10-15 14:52:00,
2013-10-15 10:57:00,60.8,33.8,30.09,ESE,111,4.9,6.3,37,0.00,,,0.00,WUHU216WMR968SP,2013-10-15 14:57:00,
2013-10-15 11:02:00,61.0,33.8,30.09,ESE,113,4.0,6.3,37,0.00,,,0.00,WUHU216WMR968SP,2013-10-15 15:02:00,
2013-10-15 11:07:00,61.0,35.6,30.09,ESE,105,4.5,6.3,38,0.00,,,0.00,WUHU216WMR968SP,2013-10-15 15:07:00,
2013-10-15 11:12:00,61.2,33.8,30.09,SSE,155,2.7,6.3,37,0.00,,,0.00,WUHU216WMR968SP,2013-10-15 15:12:00,
2013-10-15 11:17:00,61.3,33.8,30.09,East,86,4.0,6.3,37,0.00,,,0.00,WUHU216WMR968SP,2013-10-15 15:17:00,
2013-10-15 11:22:00,61.5,33.8,30.09,ESE,116,3.6,5.8,37,0.00,,,0.00,WUHU216WMR968SP,2013-10-15 15:22:00,
2013-10-15 11:27:00,61.7,35.6,30.09,East,101,3.6,5.8,37,0.00,,,0.00,WUHU216WMR968SP,2013-10-15 15:27:00,
2013-10-15 11:32:00,61.9,35.6,30.09,SE,137,3.1,5.8,37,0.00,,,0.00,WUHU216WMR968SP,2013-10-15 15:32:00,
2013-10-15 11:37:00,61.9,35.6,30.09,SE,129,4.5,5.8,36,0.00,,,0.00,WUHU216WMR968SP,2013-10-15 15:37:00,
2013-10-15 11:42:00,61.9,35.6,30.09,ESE,122,3.6,5.8,37,0.00,,,0.00,WUHU216WMR968SP,2013-10-15 15:42:00,
2013-10-15 11:47:00,62.2,35.6,30.09,SE,146,0.0,5.4,37,0.00,,,0.00,WUHU216WMR968SP,2013-10-15 15:47:00,
2013-10-15 11:52:00,62.6,35.6,30.09,East,99,4.0,5.4,36,0.00,,,0.00,WUHU216WMR968SP,2013-10-15 15:52:00,
2013-10-15 11:57:00,62.2,35.6,30.09,ENE,72,3.1,5.4,37,0.00,,,0.00,WUHU216WMR968SP,2013-10-15 15:57:00,
2013-10-15 12:02:00,62.6,35.6,30.09,East,91,2.7,5.4,36,0.00,,,0.00,WUHU216WMR968SP,2013-10-15 16:02:00,
2013-10-15 12:07:00,62.1,35.6,30.09,East,97,3.6,5.8,37,0.00,,,0.00,WUHU216WMR968SP,2013-10-15 16:07:00,
2013-10-15 12:12:00,61.9,35.6,30.09,SE,128,4.5,5.8,37,0.00,,,0.00,WUHU216WMR968SP,2013-10-15 16:12:00,
2013-10-15 12:17:00,61.9,37.4,30.09,ENE,59,2.7,5.8,38,0.00,,,0.00,WUHU216WMR968SP,2013-10-15 16:17:00,
2013-10-15 12:22:00,61.9,37.4,30.09,SE,142,3.6,5.4,38,0.00,,,0.00,WUHU216WMR968SP,2013-10-15 16:22:00,
2013-10-15 12:27:00,61.7,37.4,30.09,East,92,4.0,5.8,38,0.00,,,0.00,WUHU216WMR968SP,2013-10-15 16:27:00,
2013-10-15 12:32:00,61.5,35.6,30.09,ESE,115,4.5,5.8,38,0.00,,,0.00,WUHU216WMR968SP,2013-10-15 16:32:00,
2013-10-15 12:37:00,61.3,35.6,30.09,SE,131,3.1,5.4,38,0.00,,,0.00,WUHU216WMR968SP,2013-10-15 16:37:00,
2013-10-15 12:42:00,61.5,35.6,30.09,SE,125,2.7,4.9,39,0.00,,,0.00,WUHU216WMR968SP,2013-10-15 16:42:00,
2013-10-15 12:47:00,61.5,35.6,30.09,SE,141,3.6,4.9,38,0.00,,,0.00,WUHU216WMR968SP,2013-10-15 16:47:00,
2013-10-15 12:52:00,61.3,35.6,30.09,SE,144,3.6,5.4,39,0.00,,,0.00,WUHU216WMR968SP,2013-10-15 16:52:00,
2013-10-15 12:57:00,61.2,35.6,30.09,ESE,104,3.6,5.4,39,0.00,,,0.00,WUHU216WMR968SP,2013-10-15 16:57:00,
2013-10-15 13:02:00,61.0,35.6,30.09,SE,132,3.6,5.4,40,0.00,,,0.00,WUHU216WMR968SP,2013-10-15 17:02:00,
2013-10-15 13:07:00,60.8,35.6,30.09,SE,135,2.7,5.4,40,0.00,,,0.00,WUHU216WMR968SP,2013-10-15 17:07:00,
2013-10-15 13:12:00,60.8,35.6,30.09,SE,138,3.6,5.4,40,0.00,,,0.00,WUHU216WMR968SP,2013-10-15 17:12:00,
2013-10-15 13:17:00,60.8,37.4,30.09,ESE,111,2.7,5.4,41,0.00,,,0.00,WUHU216WMR968SP,2013-10-15 17:17:00,
2013-10-15 13:22:00,60.6,37.4,30.09,SE,140,2.7,5.8,41,0.00,,,0.00,WUHU216WMR968SP,2013-10-15 17:22:00,
2013-10-15 13:27:00,60.8,37.4,30.09,ESE,123,2.7,5.8,41,0.00,,,0.00,WUHU216WMR968SP,2013-10-15 17:27:00,
2013-10-15 13:32:00,60.6,37.4,30.09,SE,128,4.5,6.3,42,0.00,,,0.00,WUHU216WMR968SP,2013-10-15 17:32:00,
2013-10-15 13:37:00,60.6,37.4,30.09,SE,125,2.2,6.3,42,0.00,,,0.00,WUHU216WMR968SP,2013-10-15 17:37:00,
2013-10-15 13:42:00,60.6,37.4,30.06,SSE,164,3.6,5.8,42,0.00,,,0.00,WUHU216WMR968SP,2013-10-15 17:42:00,
2013-10-15 13:47:00,60.4,37.4,30.06,SSE,147,4.5,5.8,41,0.00,,,0.00,WUHU216WMR968SP,2013-10-15 17:47:00,
2013-10-15 13:52:00,60.4,37.4,30.06,SSE,147,3.6,5.8,42,0.00,,,0.00,WUHU216WMR968SP,2013-10-15 17:52:00,
2013-10-15 13:57:00,60.6,37.4,30.06,SSE,150,3.6,5.8,42,0.00,,,0.00,WUHU216WMR968SP,2013-10-15 17:57:00,
2013-10-15 14:02:00,60.6,37.4,30.06,SSE,150,3.6,5.8,42,0.00,,,0.00,WUHU216WMR968SP,2013-10-15 18:02:00,
2013-10-15 14:07:00,60.8,37.4,30.06,SE,145,3.1,5.8,42,0.00,,,0.00,WUHU216WMR968SP,2013-10-15 18:07:00,
2013-10-15 14:12:00,60.6,37.4,30.06,SE,135,4.0,5.4,42,0.00,,,0.00,WUHU216WMR968SP,2013-10-15 18:12:00,
2013-10-15 14:17:00,60.6,39.2,30.06,SE,136,2.7,5.4,43,0.00,,,0.00,WUHU216WMR968SP,2013-10-15 18:17:00,
2013-10-15 14:22:00,60.4,39.2,30.06,SSE,150,3.6,5.4,43,0.00,,,0.00,WUHU216WMR968SP,2013-10-15 18:22:00,
2013-10-15 14:27:00,60.4,39.2,30.06,ESE,115,2.7,5.8,43,0.00,,,0.00,WUHU216WMR968SP,2013-10-15 18:27:00,
2013-10-15 14:33:00,60.6,37.4,30.06,ESE,118,3.1,5.8,42,0.00,,,0.00,WUHU216WMR968SP,2013-10-15 18:33:00,
2013-10-15 14:38:00,60.6,39.2,30.06,ESE,115,4.0,5.8,43,0.00,,,0.00,WUHU216WMR968SP,2013-10-15 18:38:00,
2013-10-15 14:43:00,60.4,39.2,30.06,East,91,3.1,5.8,43,0.00,,,0.00,WUHU216WMR968SP,2013-10-15 18:43:00,
2013-10-15 14:48:00,60.4,39.2,30.06,SSE,156,4.0,5.8,43,0.00,,,0.00,WUHU216WMR968SP,2013-10-15 18:48:00,
2013-10-15 14:53:00,60.6,39.2,30.06,ESE,113,4.5,5.8,43,0.00,,,0.00,WUHU216WMR968SP,2013-10-15 18:53:00,
2013-10-15 14:58:00,60.1,39.2,30.06,ESE,114,3.6,5.8,44,0.00,,,0.00,WUHU216WMR968SP,2013-10-15 18:58:00,
2013-10-15 15:03:00,60.3,39.2,30.06,ESE,115,3.1,5.8,44,0.00,,,0.00,WUHU216WMR968SP,2013-10-15 19:03:00,
2013-10-15 15:08:00,60.3,39.2,30.06,East,85,2.7,6.3,44,0.00,,,0.00,WUHU216WMR968SP,2013-10-15 19:08:00,
2013-10-15 15:13:00,60.3,39.2,30.06,SSE,168,3.1,6.3,44,0.00,,,0.00,WUHU216WMR968SP,2013-10-15 19:13:00,
2013-10-15 15:18:00,60.1,39.2,30.06,SSE,163,3.6,5.4,44,0.00,,,0.00,WUHU216WMR968SP,2013-10-15 19:18:00,
2013-10-15 15:23:00,60.3,39.2,30.06,South,178,3.6,5.4,45,0.00,,,0.00,WUHU216WMR968SP,2013-10-15 19:23:00,
2013-10-15 15:28:00,60.3,39.2,30.06,SE,143,3.1,5.8,44,0.00,,,0.00,WUHU216WMR968SP,2013-10-15 19:28:00,
2013-10-15 15:33:00,60.3,39.2,30.06,South,175,2.7,5.8,44,0.00,,,0.00,WUHU216WMR968SP,2013-10-15 19:33:00,
2013-10-15 15:38:00,60.3,39.2,30.06,ESE,117,2.7,4.9,44,0.00,,,0.00,WUHU216WMR968SP,2013-10-15 19:38:00,
2013-10-15 15:43:00,60.1,39.2,30.06,SSE,156,2.7,5.8,45,0.00,,,0.00,WUHU216WMR968SP,2013-10-15 19:43:00,
2013-10-15 15:48:00,59.9,39.2,30.06,SE,142,2.2,5.8,45,0.00,,,0.00,WUHU216WMR968SP,2013-10-15 19:48:00,
2013-10-15 15:53:00,59.9,39.2,30.06,SSW,194,3.1,4.9,45,0.00,,,0.00,WUHU216WMR968SP,2013-10-15 19:53:00,
2013-10-15 15:58:00,59.9,39.2,30.03,SW,215,2.7,5.4,45,0.00,,,0.00,WUHU216WMR968SP,2013-10-15 19:58:00,
2013-10-15 16:03:00,59.9,39.2,30.03,SSW,209,2.7,5.4,45,0.00,,,0.00,WUHU216WMR968SP,2013-10-15 20:03:00,
2013-10-15 16:08:00,59.7,37.4,30.03,SE,141,0.0,5.8,46,0.00,,,0.00,WUHU216WMR968SP,2013-10-15 20:08:00,
2013-10-15 16:13:00,59.7,37.4,30.03,South,182,3.1,5.8,46,0.00,,,0.00,WUHU216WMR968SP,2013-10-15 20:13:00,
2013-10-15 16:18:00,59.7,37.4,30.03,SE,126,2.7,4.9,46,0.00,,,0.00,WUHU216WMR968SP,2013-10-15 20:18:00,
2013-10-15 16:23:00,59.7,39.2,30.03,SSE,168,4.0,5.4,47,0.00,,,0.00,WUHU216WMR968SP,2013-10-15 20:23:00,
2013-10-15 16:28:00,59.7,37.4,30.03,SE,127,3.6,5.8,46,0.00,,,0.00,WUHU216WMR968SP,2013-10-15 20:28:00,
2013-10-15 16:33:00,59.5,37.4,30.03,SE,131,3.1,5.8,46,0.00,,,0.00,WUHU216WMR968SP,2013-10-15 20:33:00,
2013-10-15 16:38:00,59.5,39.2,30.03,SE,141,3.1,5.8,47,0.00,,,0.00,WUHU216WMR968SP,2013-10-15 20:38:00,
2013-10-15 16:43:00,59.5,39.2,30.03,South,187,0.0,5.8,48,0.00,,,0.00,WUHU216WMR968SP,2013-10-15 20:43:00,
2013-10-15 16:48:00,59.5,39.2,30.03,SSE,164,2.2,5.8,48,0.00,,,0.00,WUHU216WMR968SP,2013-10-15 20:48:00,
2013-10-15 16:53:00,59.5,39.2,30.03,South,181,3.6,5.4,48,0.00,,,0.00,WUHU216WMR968SP,2013-10-15 20:53:00,
2013-10-15 16:58:00,59.4,39.2,30.03,South,171,0.0,5.4,49,0.00,,,0.00,WUHU216WMR968SP,2013-10-15 20:58:00,
2013-10-15 17:03:00,59.4,39.2,30.03,South,171,2.7,6.3,49,0.00,,,0.00,WUHU216WMR968SP,2013-10-15 21:03:00,
2013-10-15 17:08:00,59.4,39.2,30.03,South,189,0.0,6.3,49,0.00,,,0.00,WUHU216WMR968SP,2013-10-15 21:08:00,
2013-10-15 17:13:00,59.2,39.2,30.03,SSE,157,2.2,4.9,49,0.00,,,0.00,WUHU216WMR968SP,2013-10-15 21:13:00,
2013-10-15 17:18:00,59.2,39.2,30.03,South,175,3.6,5.4,49,0.00,,,0.00,WUHU216WMR968SP,2013-10-15 21:18:00,
2013-10-15 17:23:00,59.2,41.0,30.03,SSE,155,3.1,5.4,50,0.00,,,0.00,WUHU216WMR968SP,2013-10-15 21:23:00,
2013-10-15 17:28:00,59.0,41.0,30.03,South,181,2.7,5.4,50,0.00,,,0.00,WUHU216WMR968SP,2013-10-15 21:28:00,
2013-10-15 17:33:00,59.0,41.0,30.03,South,186,3.6,5.8,51,0.00,,,0.00,WUHU216WMR968SP,2013-10-15 21:33:00,
2013-10-15 17:38:00,59.2,41.0,30.03,SSE,165,2.7,5.8,51,0.00,,,0.00,WUHU216WMR968SP,2013-10-15 21:38:00,
2013-10-15 17:43:00,59.2,41.0,30.03,South,190,2.7,5.4,51,0.00,,,0.00,WUHU216WMR968SP,2013-10-15 21:43:00,
2013-10-15 17:48:00,59.0,41.0,30.03,South,185,3.1,5.8,52,0.00,,,0.00,WUHU216WMR968SP,2013-10-15 21:48:00,
2013-10-15 17:53:00,59.0,42.8,30.03,South,170,2.7,5.8,53,0.00,,,0.00,WUHU216WMR968SP,2013-10-15 21:53:00,
2013-10-15 17:58:00,58.8,42.8,30.03,South,184,4.0,5.8,54,0.00,,,0.00,WUHU216WMR968SP,2013-10-15 21:58:00,
2013-10-15 18:03:00,58.8,42.8,30.03,SSE,155,2.2,5.8,54,0.00,,,0.00,WUHU216WMR968SP,2013-10-15 22:03:00,
2013-10-15 18:08:00,58.6,42.8,30.03,South,173,3.1,5.4,55,0.00,,,0.00,WUHU216WMR968SP,2013-10-15 22:08:00,
2013-10-15 18:13:00,58.6,42.8,30.03,SSE,166,3.1,5.8,56,0.00,,,0.00,WUHU216WMR968SP,2013-10-15 22:13:00,
2013-10-15 18:18:00,58.6,44.6,30.03,South,182,4.0,5.8,57,0.00,,,0.00,WUHU216WMR968SP,2013-10-15 22:18:00,
2013-10-15 18:23:00,58.5,42.8,30.03,South,184,0.0,6.3,56,0.00,,,0.00,WUHU216WMR968SP,2013-10-15 22:23:00,
2013-10-15 18:28:00,58.3,42.8,30.03,South,183,0.0,6.3,56,0.00,,,0.00,WUHU216WMR968SP,2013-10-15 22:28:00,
2013-10-15 18:33:00,58.3,42.8,30.03,SSW,192,0.0,4.9,56,0.00,,,0.00,WUHU216WMR968SP,2013-10-15 22:33:00,
2013-10-15 18:38:00,58.3,42.8,30.03,SSW,192,0.0,4.9,56,0.00,,,0.00,WUHU216WMR968SP,2013-10-15 22:38:00,
2013-10-15 18:43:00,58.3,42.8,30.06,SSW,192,0.0,0.0,55,0.00,,,0.00,WUHU216WMR968SP,2013-10-15 22:43:00,
2013-10-15 18:48:00,58.3,42.8,30.06,South,183,3.6,4.9,55,0.00,,,0.00,WUHU216WMR968SP,2013-10-15 22:48:00,
2013-10-15 18:53:00,58.3,42.8,30.06,SSW,192,3.6,5.8,54,0.00,,,0.00,WUHU216WMR968SP,2013-10-15 22:53:00,
2013-10-15 18:58:00,58.3,42.8,30.06,SSW,192,2.2,5.8,53,0.00,,,0.00,WUHU216WMR968SP,2013-10-15 22:58:00,
2013-10-15 19:03:00,58.1,41.0,30.06,South,176,2.7,6.3,52,0.00,,,0.00,WUHU216WMR968SP,2013-10-15 23:03:00,
2013-10-15 19:08:00,57.7,39.2,30.06,South,189,0.0,6.3,52,0.00,,,0.00,WUHU216WMR968SP,2013-10-15 23:08:00,
2013-10-15 19:13:00,57.4,41.0,30.06,South,186,2.7,4.0,53,0.00,,,0.00,WUHU216WMR968SP,2013-10-15 23:13:00,
2013-10-15 19:18:00,57.2,41.0,30.06,South,186,0.0,4.0,54,0.00,,,0.00,WUHU216WMR968SP,2013-10-15 23:18:00,
2013-10-15 19:23:00,57.2,41.0,30.06,South,186,0.0,3.6,55,0.00,,,0.00,WUHU216WMR968SP,2013-10-15 23:23:00,
2013-10-15 19:28:00,57.4,41.0,30.06,South,186,0.0,2.2,56,0.00,,,0.00,WUHU216WMR968SP,2013-10-15 23:28:00,
2013-10-15 19:33:00,57.2,41.0,30.06,South,186,0.0,3.6,56,0.00,,,0.00,WUHU216WMR968SP,2013-10-15 23:33:00,
2013-10-15 19:38:00,57.0,41.0,30.06,South,186,0.0,3.6,56,0.00,,,0.00,WUHU216WMR968SP,2013-10-15 23:38:00,
2013-10-15 19:43:00,57.0,42.8,30.06,South,186,0.0,0.0,57,0.00,,,0.00,WUHU216WMR968SP,2013-10-15 23:43:00,
2013-10-15 19:48:00,57.0,42.8,30.06,South,186,0.0,0.0,57,0.00,,,0.00,WUHU216WMR968SP,2013-10-15 23:48:00,
2013-10-15 19:53:00,57.2,42.8,30.06,South,186,0.0,0.0,57,0.00,,,0.00,WUHU216WMR968SP,2013-10-15 23:53:00,
2013-10-15 19:58:00,57.6,42.8,30.06,South,186,0.0,0.0,57,0.00,,,0.00,WUHU216WMR968SP,2013-10-15 23:58:00,
2013-10-15 20:03:00,57.4,41.0,30.06,South,186,0.0,0.0,56,0.00,,,0.00,WUHU216WMR968SP,2013-10-16 00:03:00,
2013-10-15 20:08:00,57.4,41.0,30.06,South,186,0.0,0.0,56,0.00,,,0.00,WUHU216WMR968SP,2013-10-16 00:08:00,
2013-10-15 20:13:00,57.2,41.0,30.06,South,186,0.0,0.0,56,0.00,,,0.00,WUHU216WMR968SP,2013-10-16 00:13:00,
2013-10-15 20:18:00,57.0,41.0,30.06,South,186,0.0,0.0,56,0.00,,,0.00,WUHU216WMR968SP,2013-10-16 00:18:00,
2013-10-15 20:23:00,56.8,41.0,30.06,South,186,0.0,0.0,55,0.00,,,0.00,WUHU216WMR968SP,2013-10-16 00:23:00,
2013-10-15 20:28:00,56.5,41.0,30.06,South,186,0.0,0.0,54,0.00,,,0.00,WUHU216WMR968SP,2013-10-16 00:28:00,
2013-10-15 20:33:00,55.9,39.2,30.06,South,186,0.0,0.0,54,0.00,,,0.00,WUHU216WMR968SP,2013-10-16 00:33:00,
2013-10-15 20:38:00,55.6,39.2,30.06,South,186,0.0,0.0,54,0.00,,,0.00,WUHU216WMR968SP,2013-10-16 00:38:00,
2013-10-15 20:43:00,55.4,39.2,30.06,South,186,0.0,0.0,56,0.00,,,0.00,WUHU216WMR968SP,2013-10-16 00:43:00,
2013-10-15 20:48:00,55.2,41.0,30.06,South,186,0.0,0.0,57,0.00,,,0.00,WUHU216WMR968SP,2013-10-16 00:48:00,
2013-10-15 20:53:00,55.2,41.0,30.06,South,186,0.0,0.0,57,0.00,,,0.00,WUHU216WMR968SP,2013-10-16 00:53:00,
2013-10-15 20:58:00,54.9,41.0,30.06,South,186,0.0,0.0,57,0.00,,,0.00,WUHU216WMR968SP,2013-10-16 00:58:00,
2013-10-15 21:03:00,54.9,41.0,30.06,South,186,0.0,0.0,58,0.00,,,0.00,WUHU216WMR968SP,2013-10-16 01:03:00,
2013-10-15 21:08:00,54.9,41.0,30.06,South,186,0.0,0.0,58,0.00,,,0.00,WUHU216WMR968SP,2013-10-16 01:08:00,
2013-10-15 21:13:00,54.9,41.0,30.06,South,186,0.0,0.0,58,0.00,,,0.00,WUHU216WMR968SP,2013-10-16 01:13:00,
2013-10-15 21:18:00,54.7,41.0,30.06,South,186,0.0,0.0,58,0.00,,,0.00,WUHU216WMR968SP,2013-10-16 01:18:00,
2013-10-15 21:23:00,54.5,41.0,30.06,South,186,0.0,0.0,58,0.00,,,0.00,WUHU216WMR968SP,2013-10-16 01:23:00,
2013-10-15 21:28:00,54.5,41.0,30.03,South,186,0.0,0.0,58,0.00,,,0.00,WUHU216WMR968SP,2013-10-16 01:28:00,
2013-10-15 21:33:00,54.3,39.2,30.03,South,186,0.0,0.0,58,0.00,,,0.00,WUHU216WMR968SP,2013-10-16 01:33:00,